Vertical_Velocity
3 -2 -0 -0 -7 -10 -1 -1 2 -2 3 -2 0 -1 1 1 -7 -5 -2 -1 -3 2 6 15 -0 8 1 2 -13 1 5 3 8 1 -3 -4 2 1 -1 -1 5 2 -2 0 -0 2 2
0 2 -1 -2 1 11 4 8 6 7 5 4 -0 2 1 0 1 -1 -2 0 -5 -2 4 22 1 -0 6 3 -2 -4 1 3 8 -1 -2 -0 -2 0 -3 -0 1 0 1 -0 0 -2 1
-2 5 5 1 -3 -7 -11 -10 5 5 2 7 1 -12 1 -1 -0 1 -8 -3 -6 -4 2 1 9 0 5 -25 4 -0 3 -3 0 2 -6 6 3 4 -0 0 0 2 -3 -2 -3 -5 -2
1 1 -7 -2 -3 0 -0 -5 -6 -2 -0 1 7 2 -8 5 2 -1 -4 -2 -4 -7 -4 6 17 3 -8 2 1 -4 -1 2 1 2 3 6 -1 0 -2 -1 -2 -2 -3 -1 -7 2 -9
-3 -1 -2 -2 -3 1 2 -0 -2 1 -0 -2 2 3 1 1 -4 -2 -3 -4 -1 0 -3 -3 19 2 -8 1 6 -5 -1 -4 2 8 5 2 -0 -0 0 -1 -2 -0 -1 1 -6 -0 -1
-4 0 -1 5 5 1 1 -4 -2 1 -2 2 1 0 0 -2 -1 -4 1 0 -1 2 -3 5 12 2 1 -7 3 -4 -3 7 -3 5 0 -6 0 -1 1 -0 -5 -3 1 -0 -1 -4 1
-0 2 -5 0 3 3 -6 -4 -5 -4 -1 -1 -1 1 -4 -3 -4 5 -4 -12 3 4 1 -2 -17 -6 3 5 10 -1 4 5 7 1 -2 2 -3 -2 -4 -2 -2 1 1 0 -2 -3 3
-3 1 -2 0 1 -1 -2 -4 -1 -2 -2 -1 -1 1 -1 -0 -0 0 -2 0 10 6 1 -4 0 14 1 -3 0 6 9 -4 -1 -1 0 -4 -1 -3 0 1 3 1 1 -2 -5 -1 -3
1 -4 -3 3 -1 0 -2 -2 -1 2 -0 -0 0 -1 -2 1 2 1 0 5 8 -15 4 12 -2 6 -9 -0 -2 -4 2 0 -3 0 0 -4 -5 1 2 -0 1 -1 1 -1 -0 -2 -3
4 -3 -4 1 -2 -1 2 -2 0 -2 1 5 2 0 -2 -3 0 1 -1 -2 2 -18 3 7 3 7 2 2 -1 -5 2 -15 4 -5 -1 -1 -1 -1 0 0 -1 0 0 -0 -1 -3 -3
-5 0 2 4 -0 -0 -1 2 3 2 -0 6 4 -1 7 22 0 -0 1 -0 1 -8 3 17 5 11 -3 -0 -12 2 2 1 -2 -1 -4 -11 0 0 -0 -2 -1 -4 -2 -0 0 -0 -2
-4 -1 1 3 -4 -0 -1 1 2 -2 0 1 1 -1 1 -11 1 -3 7 -3 -9 -7 -1 5 3 2 -1 7 3 6 2 2 1 -1 3 1 2 -2 -5 -0 -1 0 -3 -2 -1 -1 -2
-3 1 2 1 -5 3 3 4 -6 -5 4 -2 1 2 3 17 -10 -0 7 -9 -7 3 -3 8 2 0 -2 2 4 -0 0 -0 -3 -6 -0 -1 0 1 -2 -2 -1 -3 -4 -4 -6 -1 -7
1 -8 1 1 -2 -1 -5 3 1 2 0 -7 -6 3 -3 1 -4 4 2 1 2 -2 1 1 -2 4 -4 -4 3 2 1 -0 -2 -2 -2 -3 -9 -2 -2 -5 -8 -1 -5 -5 -3 -1 -3
2 -2 -1 4 0 -3 0 1 1 -5 -1 5 4 -7 6 5 8 -4 -2 -2 4 2 -1 -3 4 -1 3 2 -10 -2 -1 -1 -2 -2 -7 -2 -4 3 -1 -0 -10 -3 1 -6 -2 -1 -4
-1 -0 4 -4 1 -1 -2 -0 2 -6 -3 -0 -5 -5 -3 -1 -14 -3 -1 2 -2 0 -2 0 -3 -3 -1 1 -4 -1 0 -6 -2 -2 -1 0 -3 -1 0 0 -3 -8 -5 -9 -4 -4 -2
-3 -0 2 -6 2 2 0 2 -1 -0 0 -1 -10 -5 1 7 3 -0 1 1 -0 -1 0 0 -1 -0 -1 -2 -2 0 -6 -3 1 1 -0 -1 -6 -3 1 -1 -4 2 -0 -1 -6 -3 -3
-6 -2 -1 -3 -1 1 -0 -1 5 -3 6 -5 -2 -4 -3 3 -3 -0 0 2 2 1 -3 -1 -2 -2 -3 -0 -0 0 -4 0 -2 -5 -1 -2 -3 -1 -10 -4 -3 -2 -3 -2 -4 -5 -2
-2 -0 -1 -4 -6 2 -3 1 6 -16 3 -5 -2 -1 -2 2 0 -1 -3 -0 0 -1 0 -1 1 -2 -0 -2 -4 -0 0 2 0 -1 -5 -3 -1 -2 -4 -6 3 0 -1 -1 -1 -0 -6
-3 2 -2 -4 -4 2 -3 1 6 -9 2 -5 0 -4 -3 3 -1 0 0 1 -3 -1 -1 0 2 -5 0 0 -0 -1 0 1 2 -1 1 -3 -0 -6 -7 -7 -3 0 0 -0 -1 3 -5
-1 -1 -1 -4 -3 3 -3 1 0 0 -3 2 -0 -1 1 -4 -3 -0 -1 0 -0 -2 -1 -1 -4 -3 -3 -1 -0 0 1 1 0 1 -0 -5 -2 0 -1 -1 1 -2 -1 -1 3 -8 7
1 -2 0 -4 -2 1 2 -3 -2 -2 2 -14 -2 -1 -8 0 1 -2 -0 -0 1 -1 0 -1 -3 2 -2 -2 -1 -1 -4 -1 -5 2 -0 0 -1 0 -2 -1 1 0 -1 0 -0 -2 2
1 -3 1 -6 -4 2 -2 -3 0 -4 2 -5 -3 4 5 -3 -1 -1 -2 -1 2 -0 -2 1 2 -4 -3 2 2 3 1 -0 -5 -5 -0 -2 -2 -1 -4 0 -1 -1 -5 -1 -1 -0 1
-3 -2 3 2 -7 -2 3 -6 -2 -1 1 3 1 -1 2 -4 -0 -0 -0 -0 -0 1 -3 1 -3 -4 2 0 -0 -2 -3 -1 -0 2 -4 -1 -0 -0 -2 -3 -3 -11 -1 -2 -1 -2 -0
-2 2 -2 1 3 -11 0 1 -7 -2 -6 2 -0 -3 -0 -1 2 -1 1 -1 1 1 -1 -1 0 1 0 -1 -1 1 1 -2 -1 -0 1 -2 -1 -0 -0 -1 -10 -3 -2 -2 -4 -7 -1
-2 5 -2 2 -0 1 -4 -4 2 -5 1 -2 4 0 0 4 -1 4 2 -2 -2 -0 0 0 -1 -2 -1 -1 -1 -1 -1 -1 2 2 1 1 -1 -2 1 1 -1 -4 -1 0 -1 -4 -1
-2 2 -1 1 2 1 -3 5 -7 -1 -3 -2 -1 -0 -1 3 1 -2 1 1 1 1 -1 1 0 -1 -1 -0 -0 -1 -1 -1 -2 -1 0 2 2 -1 -0 -0 -8 -4 -1 0 0 -14 -1
-4 -3 -4 -1 -0 -0 -3 2 2 6 -0 -6 0 3 1 -0 -16 -1 -1 -0 -3 2 -3 -2 -3 -3 -0 -1 -1 0 -0 -1 -0 -2 -4 -5 -3 -1 2 2 -8 -1 1 -1 -11 -1 -0
-2 -2 -0 -4 -1 3 -3 -3 -1 0 3 2 -6 -0 5 -0 -8 -0 -3 -1 -0 4 2 2 2 -1 -1 -2 0 0 0 0 -1 -2 2 -3 -9 -8 -8 -13 -5 -0 -2 3 0 1 -1
Height
1526 1524 1520 1516 1514 1510 1505 1502 1497 1493 1489 1485 1482 1479 1477 1474 1472 1469 1466 1464 1462 1462 1462 1463 1465 1465 1468 1470 1467 1467 1469 1472 1475 1478 1480 1484 1487 1489 1491 1490 1491 1492 1492 1492 1493 1491 1491
1528 1523 1518 1514 1510 1506 1502 1497 1492 1488 1483 1480 1477 1474 1472 1470 1468 1465 1463 1460 1458 1457 1457 1459 1461 1463 1465 1466 1464 1467 1467 1470 1473 1476 1479 1482 1486 1488 1489 1489 1491 1487 1488 1490 1489 1488 1488
1526 1521 1517 1512 1507 1502 1498 1493 1487 1482 1477 1474 1471 1471 1467 1464 1462 1460 1458 1456 1455 1453 1453 1455 1457 1460 1461 1459 1462 1463 1467 1468 1471 1474 1478 1481 1484 1487 1488 1487 1486 1486 1489 1487 1487 1486 1486
1523 1518 1513 1508 1503 1499 1493 1488 1483 1478 1474 1470 1467 1464 1462 1458 1456 1454 1451 1449 1449 1449 1449 1451 1452 1458 1457 1456 1459 1461 1465 1467 1470 1472 1476 1480 1482 1485 1486 1487 1486 1487 1488 1497 1483 1480 1481
1521 1515 1510 1505 1500 1494 1488 1483 1478 1473 1469 1466 1462 1460 1456 1454 1451 1449 1446 1444 1443 1443 1445 1448 1449 1454 1455 1453 1455 1459 1462 1465 1468 1470 1475 1479 1481 1483 1486 1487 1494 1491 1499 1495 1487 1472 1473
1518 1514 1509 1503 1496 1490 1484 1479 1474 1469 1465 1462 1458 1455 1453 1450 1448 1445 1443 1441 1438 1439 1443 1446 1446 1455 1450 1448 1449 1457 1460 1465 1468 1471 1475 1477 1481 1484 1486 1489 1496 1495 1495 1487 1486 1474 1472
1516 1511 1506 1500 1494 1488 1481 1476 1472 1466 1462 1458 1455 1452 1449 1447 1444 1442 1441 1438 1439 1441 1438 1435 1438 1440 1437 1445 1449 1455 1460 1465 1468 1471 1474 1478 1483 1486 1487 1486 1485 1486 1486 1487 1480 1476 1477
1514 1509 1504 1497 1492 1485 1479 1473 1468 1464 1459 1455 1451 1449 1446 1444 1441 1440 1439 1438 1438 1439 1437 1436 1436 1440 1439 1443 1448 1455 1460 1463 1466 1470 1473 1482 1485 1482 1482 1484 1485 1486 1486 1486 1479 1472 1475
1511 1507 1501 1495 1489 1483 1477 1471 1466 1462 1457 1452 1449 1446 1444 1442 1438 1437 1437 1437 1436 1436 1438 1431 1433 1438 1441 1444 1447 1452 1457 1462 1466 1471 1474 1480 1478 1473 1481 1483 1485 1485 1486 1486 1486 1478 1477
1511 1504 1498 1492 1486 1481 1474 1468 1463 1458 1455 1450 1445 1443 1442 1440 1440 1436 1436 1435 1432 1436 1437 1427 1435 1436 1441 1443 1450 1454 1459 1463 1466 1470 1475 1475 1474 1475 1480 1484 1484 1489 1485 1484 1485 1489 1494
1509 1502 1496 1489 1484 1479 1473 1466 1460 1456 1451 1447 1443 1440 1438 1437 1434 1436 1436 1436 1433 1438 1423 1430 1433 1435 1440 1444 1449 1456 1459 1462 1464 1466 1471 1477 1474 1476 1482 1483 1482 1487 1485 1486 1487 1494 1496
1507 1501 1493 1487 1482 1476 1472 1465 1459 1453 1448 1444 1439 1435 1431 1427 1428 1431 1433 1434 1436 1442 1422 1423 1427 1433 1441 1445 1448 1454 1459 1462 1463 1464 1469 1473 1474 1478 1481 1482 1483 1484 1487 1489 1491 1500 1517
1503 1500 1492 1485 1480 1475 1469 1462 1456 1450 1445 1439 1433 1428 1423 1421 1422 1427 1431 1433 1439 1438 1422 1425 1425 1433 1440 1445 1451 1454 1458 1463 1467 1476 1478 1475 1478 1479 1481 1485 1484 1486 1496 1525 1511 1505 1503
1503 1498 1492 1485 1479 1473 1468 1461 1453 1447 1441 1434 1426 1422 1419 1418 1420 1426 1431 1435 1432 1418 1418 1421 1425 1435 1441 1444 1454 1456 1461 1466 1466 1468 1484 1492 1496 1481 1479 1483 1486 1488 1491 1511 1496 1504 1488
1503 1497 1492 1485 1479 1473 1467 1460 1451 1444 1437 1429 1424 1421 1416 1418 1422 1429 1433 1436 1429 1424 1419 1420 1433 1441 1444 1444 1453 1457 1462 1464 1467 1468 1479 1491 1484 1474 1476 1478 1482 1489 1496 1490 1500 1493 1514
1502 1496 1490 1485 1478 1472 1465 1458 1450 1442 1434 1429 1427 1426 1424 1426 1430 1433 1434 1428 1432 1430 1423 1425 1433 1437 1445 1445 1453 1455 1462 1460 1464 1464 1466 1469 1483 1474 1478 1480 1479 1483 1483 1502 1512 1523 1497
1500 1496 1490 1484 1478 1471 1465 1457 1449 1441 1433 1430 1430 1432 1438 1435 1435 1435 1431 1432 1428 1426 1425 1424 1427 1431 1439 1445 1448 1452 1459 1455 1458 1461 1464 1465 1474 1484 1480 1481 1481 1483 1490 1489 1494 1501 1507
1499 1495 1489 1484 1477 1471 1464 1457 1450 1442 1436 1436 1434 1438 1442 1441 1443 1440 1437 1436 1432 1431 1427 1424 1423 1428 1436 1443 1449 1452 1456 1450 1452 1456 1465 1466 1475 1489 1481 1473 1473 1476 1481 1484 1499 1498 1493
1498 1494 1488 1483 1477 1471 1464 1458 1451 1445 1443 1441 1441 1445 1445 1445 1443 1440 1439 1433 1433 1429 1425 1422 1422 1424 1433 1440 1447 1447 1449 1451 1452 1456 1462 1465 1478 1494 1475 1475 1472 1475 1474 1474 1478 1483 1475
1498 1494 1488 1483 1478 1472 1466 1459 1454 1448 1447 1445 1445 1449 1446 1445 1444 1444 1442 1439 1437 1431 1429 1426 1426 1429 1436 1438 1438 1447 1453 1453 1453 1456 1459 1462 1470 1482 1481 1478 1470 1479 1471 1470 1473 1478 1465
1497 1493 1488 1484 1479 1473 1466 1461 1456 1452 1448 1448 1447 1448 1447 1449 1442 1443 1442 1443 1438 1436 1431 1429 1430 1432 1436 1440 1441 1447 1451 1454 1456 1458 1459 1463 1478 1477 1469 1466 1467 1469 1467 1466 1469 1461 1465
1497 1492 1488 1484 1480 1474 1469 1463 1459 1454 1452 1451 1450 1452 1448 1444 1444 1443 1441 1443 1439 1436 1436 1434 1434 1436 1435 1441 1441 1445 1447 1453 1456 1459 1461 1464 1474 1475 1475 1463 1463 1464 1458 1457 1455 1453 1446
1495 1492 1488 1485 1481 1476 1471 1466 1461 1457 1455 1453 1455 1453 1452 1446 1444 1444 1442 1440 1439 1438 1439 1439 1437 1439 1443 1444 1444 1444 1445 1448 1449 1454 1459 1465 1473 1481 1482 1458 1460 1458 1445 1442 1439 1436 1436
1493 1491 1488 1484 1480 1476 1472 1468 1465 1461 1459 1459 1457 1455 1454 1449 1443 1441 1440 1440 1441 1439 1440 1440 1438 1440 1446 1445 1445 1446 1447 1449 1450 1452 1455 1465 1470 1476 1476 1467 1465 1434 1428 1428 1433 1429 1427
1490 1489 1486 1483 1479 1476 1473 1469 1465 1463 1461 1459 1459 1458 1458 1453 1447 1441 1441 1442 1443 1442 1441 1442 1443 1444 1444 1445 1448 1449 1451 1453 1451 1452 1454 1457 1464 1467 1469 1473 1450 1430 1429 1430 1433 1427 1422
1488 1486 1484 1482 1478 1476 1473 1470 1466 1463 1461 1460 1459 1459 1457 1456 1448 1447 1441 1440 1444 1444 1444 1443 1444 1444 1444 1446 1448 1451 1448 1444 1454 1453 1454 1457 1459 1464 1463 1464 1452 1429 1425 1426 1428 1426 1416
1485 1484 1481 1479 1476 1473 1471 1469 1467 1464 1461 1459 1458 1457 1457 1456 1446 1445 1442 1440 1439 1441 1443 1442 1443 1444 1444 1447 1447 1451 1449 1442 1449 1453 1453 1454 1457 1458 1459 1457 1446 1427 1424 1426 1430 1425 1413
1482 1481 1478 1474 1473 1471 1469 1467 1465 1463 1461 1459 1457 1456 1456 1453 1443 1443 1443 1441 1438 1437 1442 1443 1445 1445 1446 1447 1449 1447 1449 1443 1443 1442 1446 1448 1452 1451 1454 1455 1451 1418 1425 1427 1416 1410 1410
1478 1477 1475 1472 1469 1467 1465 1464 1463 1462 1459 1457 1455 1454 1453 1451 1441 1438 1437 1438 1439 1439 1439 1441 1441 1439 1440 1444 1447 1446 1445 1446 1446 1445 1435 1442 1437 1441 1441 1435 1418 1417 1415 1414 1412 1410 1408